RH
71 49 66 57 45 59 38 51 57 66 76 73 81 80 89 92 92 95 94 84 80 72 70 83 84 86 78 86 99 95 89 51 46 42 48 48 43 33 42 40 40 48 46 40 38 32 32
75 46 34 42 34 29 36 50 54 56 65 68 68 74 80 84 96 91 94 99 73 77 80 80 75 76 80 92 70 64 54 48 42 42 46 42 34 31 38 48 46 45 42 41 35 36 36
79 50 29 31 41 26 38 47 54 50 50 54 63 69 75 84 84 93 98 99 96 97 100 92 80 70 64 71 54 49 44 42 39 42 43 30 28 26 36 46 41 37 39 37 44 38 43
62 46 28 28 38 42 28 40 48 47 43 49 52 63 71 74 82 83 97 90 97 90 93 78 64 52 72 51 48 44 41 39 34 36 33 28 27 27 34 36 36 39 40 37 41 39 44
63 35 28 28 27 40 40 33 42 42 41 46 47 55 60 63 71 73 83 90 81 78 76 70 56 57 69 47 42 40 38 36 34 32 30 27 22 35 34 49 45 52 50 32 38 46 47
44 30 28 28 29 30 40 35 31 45 40 39 42 45 47 54 56 60 67 65 64 68 64 61 59 60 60 54 44 38 36 33 31 29 27 26 31 50 54 46 43 41 54 43 39 52 50
28 32 28 29 31 35 34 41 36 28 39 38 36 37 42 46 51 52 55 53 52 55 57 68 77 72 68 50 43 38 34 32 30 30 49 44 54 66 51 41 37 50 43 44 53 53 60
42 29 31 29 29 36 39 38 39 35 30 30 31 31 34 36 38 40 45 52 62 60 54 48 51 53 54 46 40 38 34 33 39 57 47 58 66 54 51 48 48 44 45 56 50 55 59
53 40 29 33 28 29 36 40 39 36 33 32 29 29 29 31 33 34 40 44 46 45 52 48 47 48 51 48 59 52 42 44 56 65 62 63 56 50 51 57 59 74 57 63 61 66 60
51 51 40 31 32 28 29 33 40 45 42 36 34 32 30 30 33 39 43 47 53 44 81 64 55 53 49 43 51 56 49 46 56 60 61 64 58 52 60 65 55 55 65 65 70 63 53
49 50 51 40 32 32 29 26 29 39 43 49 52 54 45 36 38 45 49 47 43 42 86 54 55 51 53 50 53 53 51 45 68 65 47 64 65 65 70 67 59 64 64 70 74 79 81
45 46 50 51 42 32 30 26 24 28 34 42 47 53 54 51 48 48 50 50 38 74 77 65 55 66 60 57 57 48 49 47 57 65 70 69 58 61 60 64 62 66 67 64 73 74 71
36 41 46 48 51 47 35 27 23 24 27 30 39 53 55 53 56 53 47 49 76 88 54 69 72 68 64 70 64 64 70 78 72 60 81 72 69 63 58 66 61 61 63 68 56 75 55
32 31 41 44 46 51 49 37 25 21 26 27 30 48 55 52 52 51 43 69 88 74 79 56 68 63 70 68 68 69 66 78 71 71 88 81 69 65 58 63 67 78 63 70 40 63 70
29 32 34 41 42 46 49 48 36 23 21 28 31 38 49 48 50 50 45 91 81 77 64 68 59 63 66 60 61 72 76 76 74 66 61 85 78 67 61 67 60 81 82 66 89 83 91
19 32 36 40 39 42 43 46 42 28 21 24 32 36 45 42 44 46 80 88 79 65 68 64 68 60 69 66 63 70 73 68 71 70 65 69 87 72 68 67 76 67 70 84 87 88 87
21 21 30 34 37 41 39 39 40 33 22 20 27 30 39 40 38 43 90 82 78 67 66 65 72 67 65 68 65 69 74 66 67 72 65 69 71 80 78 83 86 85 88 82 79 81 90
19 20 20 26 30 35 36 37 34 31 28 20 21 54 36 33 49 79 83 69 63 65 67 67 66 62 62 65 65 67 68 66 65 64 72 73 74 94 82 72 71 74 80 82 79 78 78
20 20 17 18 24 31 35 36 38 32 28 22 23 24 30 27 73 88 72 70 67 68 67 67 65 59 59 60 61 61 60 63 67 67 76 72 78 68 48 62 77 80 86 81 77 81 85
21 26 20 16 17 24 34 38 38 36 32 26 23 65 30 38 63 69 67 68 65 66 65 64 62 59 59 61 58 54 52 68 72 67 67 64 81 53 38 24 68 89 92 88 79 94 84
26 27 37 33 16 17 30 39 39 39 36 30 32 58 51 77 66 70 62 64 66 63 64 64 62 64 59 56 56 58 52 57 74 73 72 71 80 88 81 74 67 66 69 93 94 77 78
41 29 31 58 63 35 25 39 43 42 39 40 35 40 60 66 65 61 66 70 65 58 64 66 61 62 64 56 48 44 52 57 52 75 74 84 77 81 85 73 80 84 75 74 74 80 81
80 70 63 55 61 65 39 46 52 51 49 52 51 46 42 79 70 65 59 53 60 57 57 54 61 62 70 67 54 50 51 50 51 73 83 82 87 84 83 74 77 63 59 64 71 75 70
90 85 82 76 77 75 67 54 71 68 68 64 65 54 45 58 78 64 57 63 59 62 58 59 62 62 55 55 58 60 68 73 72 68 71 87 80 84 92 78 50 31 40 54 65 62 66
98 91 90 85 83 86 88 80 76 84 81 77 71 67 60 74 54 55 53 58 49 53 60 62 56 61 63 58 62 58 46 57 92 90 86 75 78 82 93 97 67 30 44 54 52 38 46
99 100 99 99 90 89 96 100 94 91 92 87 81 80 73 65 72 48 49 50 56 58 58 57 62 64 64 68 66 53 42 32 69 88 91 86 80 78 93 99 62 26 33 44 41 30 22
97 100 100 99 99 100 100 100 100 98 98 95 89 86 83 75 71 54 56 58 51 64 67 61 63 72 68 79 69 71 66 52 52 72 90 88 90 87 76 82 76 59 43 42 37 33 26
94 98 99 100 99 99 99 99 97 97 97 98 95 94 93 88 84 84 77 63 59 61 65 59 63 75 83 80 77 71 77 65 63 60 90 90 88 89 77 82 89 50 52 42 32 30 36
89 95 94 93 88 91 94 98 97 99 93 93 93 93 93 94 82 79 84 90 90 78 65 58 59 62 66 87 85 82 78 85 73 60 73 69 71 83 75 71 49 46 41 34 38 41 40
Wind_Speed
20 19 19 19 19 18 18 21 24 24 24 29 27 29 30 28 34 32 27 18 19 25 24 24 26 24 20 21 11 11 15 19 22 21 23 21 18 9 5 6 4 6 3 7 7 10 10
21 20 19 19 19 17 16 19 23 26 24 26 26 25 28 28 31 36 32 34 31 27 27 25 26 21 24 17 14 14 16 20 18 21 22 21 9 17 12 6 5 6 13 6 9 8 8
22 20 19 19 18 18 14 15 19 25 27 31 29 27 27 31 34 32 30 39 30 29 28 29 22 25 33 16 16 19 19 18 18 18 23 16 16 4 7 6 7 5 6 4 10 7 4
23 22 20 19 19 17 14 10 14 18 22 27 31 28 22 26 28 30 32 39 30 30 25 24 21 19 20 18 21 19 19 17 15 19 19 16 11 18 7 13 6 5 5 4 4 8 5
23 22 22 20 19 17 14 9 8 13 20 23 29 30 25 20 15 25 24 31 28 23 23 20 16 27 10 14 20 19 18 19 20 21 20 17 12 10 6 5 4 6 4 3 2 6 4
25 23 22 22 21 18 15 12 9 7 11 18 23 25 28 31 13 15 17 27 29 20 23 18 13 18 10 12 15 17 17 19 19 18 12 8 7 5 4 4 4 4 4 3 2 5 4
26 24 22 21 20 21 17 14 11 10 9 10 13 20 25 25 34 29 15 18 16 27 40 26 20 27 10 15 14 11 13 14 9 11 5 9 9 5 2 2 4 6 5 4 0 1 3
28 26 23 22 20 18 20 18 15 11 11 10 11 11 11 14 18 19 30 35 21 12 14 31 29 25 24 12 14 12 7 5 6 4 2 7 5 2 3 5 7 5 5 2 2 2 2
27 28 25 23 21 19 17 18 19 16 12 11 10 8 6 5 7 10 13 16 13 12 7 20 22 24 15 18 12 16 9 8 8 7 6 6 2 2 4 4 7 4 5 2 2 4 2
25 26 27 25 22 21 18 14 15 16 16 13 11 9 7 6 2 7 10 8 4 4 5 12 10 12 15 3 7 18 9 5 7 4 4 7 4 4 5 4 2 3 1 3 3 3 2
23 25 26 26 24 23 21 17 12 11 13 14 13 11 9 7 3 4 4 5 3 2 6 12 9 9 12 9 1 13 14 12 5 2 3 2 2 4 5 2 2 3 2 3 2 3 2
21 22 24 25 26 25 24 21 16 11 8 11 13 13 10 6 5 5 3 3 2 6 3 7 7 7 5 12 6 5 7 12 5 6 7 2 2 3 1 2 3 5 4 5 3 2 2
19 20 22 24 25 26 26 24 20 15 10 7 10 13 12 10 5 2 2 2 5 7 3 7 4 6 4 7 6 5 5 6 3 5 4 5 3 3 1 3 2 4 4 3 4 3 4
17 19 21 22 24 25 26 26 23 17 12 8 7 11 14 10 6 2 2 6 11 4 4 3 3 5 5 6 5 6 3 4 5 4 3 4 4 1 1 1 3 3 3 4 4 2 4
14 16 19 20 22 23 26 27 26 21 14 9 5 4 20 15 9 1 1 7 7 6 3 1 2 4 5 5 2 5 4 1 1 2 3 3 1 1 1 1 2 2 1 2 5 1 2
13 13 15 18 20 21 23 25 28 25 18 9 6 2 18 16 11 6 7 5 3 4 3 2 4 1 3 5 4 3 2 1 1 3 2 2 3 1 1 1 4 1 4 3 2 1 4
13 13 13 14 16 20 22 23 25 26 22 11 5 1 17 14 7 10 4 2 2 4 4 3 4 4 3 3 2 2 1 1 2 2 3 3 3 3 3 3 5 2 0 3 2 3 2
13 13 13 14 15 18 20 23 24 25 24 12 5 4 16 10 6 5 3 3 4 2 0 1 2 1 3 4 3 3 4 5 6 6 3 1 3 3 6 2 3 3 4 4 3 3 1
14 15 14 14 14 15 17 20 22 23 24 15 4 4 10 6 4 2 1 3 2 2 2 1 1 1 1 3 2 2 3 3 10 6 5 5 0 2 4 3 1 4 5 4 4 3 8
13 15 16 15 13 15 17 18 19 21 20 13 5 3 8 10 7 5 4 2 2 2 2 2 1 1 1 1 2 2 1 1 6 3 4 5 3 5 6 4 3 4 5 6 5 3 4
13 15 15 16 15 13 14 16 17 18 16 12 7 3 3 3 5 3 2 3 3 3 2 3 2 4 4 1 1 1 1 1 1 2 2 2 3 2 5 8 6 10 9 8 13 12 9
13 14 16 15 17 17 14 14 16 17 14 10 4 3 2 2 0 1 2 4 6 3 5 3 3 3 6 5 6 3 3 3 4 2 2 3 2 2 5 5 5 8 12 14 16 17 16
11 12 13 15 16 16 17 14 15 15 15 7 7 5 2 2 2 3 2 3 3 3 4 3 5 2 3 8 12 11 10 6 5 7 6 3 2 2 5 3 7 6 8 13 6 6 11
12 11 11 13 14 14 15 14 12 13 13 10 9 4 2 2 0 2 2 2 2 3 2 2 7 4 2 1 6 7 6 6 6 7 6 5 4 3 4 7 2 5 4 6 9 7 15
17 14 11 11 11 13 12 12 10 10 10 9 8 6 2 1 3 4 4 4 6 5 3 4 6 4 2 2 2 5 3 1 2 4 4 3 3 2 1 2 9 3 1 5 5 6 5
20 19 15 14 12 10 11 11 10 9 8 8 6 6 2 0 4 3 1 2 2 2 4 3 2 2 2 3 2 2 4 2 2 2 6 4 4 4 1 1 5 3 3 4 3 4 1
23 22 20 17 14 14 12 12 10 9 8 8 6 5 2 2 4 4 3 2 3 2 2 3 1 2 4 2 2 3 3 2 3 5 5 5 2 9 8 5 9 7 7 2 1 4 6
25 23 20 18 17 18 16 14 13 12 11 9 9 6 5 3 10 8 6 7 5 4 2 2 1 1 2 2 3 3 3 3 1 4 6 7 8 5 5 5 9 10 5 4 3 8 15
16 16 17 17 16 17 18 20 17 17 15 12 12 9 9 8 9 18 22 22 22 18 9 7 3 4 8 3 2 2 3 2 4 3 1 3 7 5 10 7 5 9 10 13 17 24 23
Wind_Direction
16 16 15 14 17 14 23 21 27 25 30 33 28 22 34 25 32 29 35 66 98 117 116 122 115 130 122 91 47 114 129 133 135 146 147 149 140 106 89 104 72 83 111 66 79 86 73
16 15 16 14 18 23 34 28 36 34 26 22 27 23 25 27 33 34 47 80 99 107 115 116 112 100 112 71 77 108 121 129 130 147 142 145 133 116 89 62 52 112 103 88 56 54 56
13 15 20 16 16 23 44 37 42 42 39 36 33 31 37 44 40 46 66 84 107 114 124 123 124 114 88 76 88 105 120 118 125 143 139 128 131 119 111 95 103 102 78 81 26 17 31
18 17 22 20 19 19 36 45 31 32 30 33 37 32 37 42 50 47 69 78 98 105 119 126 124 130 84 75 85 104 119 122 119 136 138 127 123 107 79 107 46 47 52 98 8 6 9
19 22 20 21 20 21 20 29 28 34 34 32 37 40 37 33 39 34 61 84 83 91 107 121 117 94 75 84 82 105 124 120 121 117 110 119 112 80 83 85 51 12 123 98 51 29 348
22 19 24 23 23 18 18 20 16 8 24 33 36 35 29 34 40 64 61 67 74 89 100 89 63 76 72 46 69 96 111 122 115 113 101 77 72 80 40 65 169 153 103 59 90 337 5
23 22 24 23 28 27 20 20 17 10 6 13 27 39 50 49 50 50 104 75 74 55 63 74 81 90 55 65 70 99 110 116 98 67 61 33 73 85 67 39 110 114 99 107 82 358 344
22 24 23 27 24 28 28 21 24 21 14 18 25 48 58 50 52 20 65 69 68 91 59 64 63 63 53 64 70 61 100 77 59 61 11 45 64 321 66 82 93 79 105 48 312 27 10
22 21 24 24 27 23 25 26 25 26 27 20 30 29 45 11 18 23 35 54 61 86 77 36 35 32 26 53 45 29 49 63 65 50 41 93 133 1 84 50 81 39 109 119 165 331 67
23 21 22 23 25 24 19 20 25 30 36 36 25 22 21 10 62 38 43 23 41 76 75 344 0 23 3 50 55 31 42 61 45 97 69 72 352 98 72 71 68 106 168 108 68 46 256
24 20 20 20 25 22 19 12 13 15 22 34 31 27 21 39 34 48 57 57 58 78 64 313 336 3 32 80 339 17 35 65 80 52 95 290 50 70 64 19 24 143 94 80 91 86 43
24 19 18 18 18 25 20 14 5 2 2 10 26 23 20 21 23 22 33 66 61 47 14 332 338 348 26 31 31 41 58 75 93 64 45 74 34 52 102 56 71 140 77 47 59 73 20
19 18 16 16 16 19 20 17 12 2 360 353 357 19 16 16 1 26 60 102 46 79 260 318 329 4 14 12 23 39 29 24 71 82 12 354 357 330 89 77 49 68 62 346 357 11 229
17 14 13 13 15 13 17 15 15 8 357 0 358 16 19 19 360 40 119 63 67 238 250 280 5 349 40 359 12 14 37 33 30 75 98 118 332 166 24 70 164 57 140 151 214 249 291
15 13 7 9 11 13 11 14 11 9 358 351 351 352 10 9 18 84 60 54 166 194 190 106 12 61 1 14 74 53 36 47 292 28 110 132 339 313 131 25 98 160 78 152 101 137 322
3 8 6 4 4 9 13 12 10 8 3 355 351 10 9 9 18 35 67 117 148 203 163 132 119 126 70 346 51 39 8 282 66 43 44 203 97 9 342 91 37 182 142 77 24 129 274
354 357 358 357 360 2 5 11 13 9 8 7 7 72 5 6 14 51 89 98 181 195 176 149 175 138 164 148 143 92 350 221 177 150 107 139 111 312 17 209 182 144 141 75 118 151 202
340 348 349 349 354 0 4 6 11 12 12 13 22 37 360 3 42 51 64 101 121 154 277 339 132 130 161 178 131 145 167 197 180 162 136 183 139 180 198 185 180 173 174 150 138 225 204
334 341 344 345 344 355 3 6 8 12 12 12 36 20 9 17 86 38 96 79 96 135 173 159 299 318 274 194 105 199 209 213 174 161 165 180 118 40 353 13 14 214 194 160 126 129 205
327 335 338 340 345 350 359 3 7 11 9 16 11 23 28 50 61 110 133 132 135 165 154 161 163 79 65 331 357 209 220 218 201 188 163 145 159 191 195 206 135 209 195 188 165 191 191
318 328 337 337 342 357 358 1 5 10 14 14 30 58 33 330 22 68 53 153 149 196 206 189 153 188 168 255 327 277 272 143 138 197 73 113 231 173 265 253 243 246 237 189 207 212 213
316 320 322 340 346 350 359 360 4 8 15 34 45 17 33 81 66 119 322 225 184 180 162 241 208 186 176 187 182 198 163 209 216 63 129 12 309 42 284 296 242 265 254 232 232 239 253
313 322 327 328 335 345 351 1 4 8 15 44 36 25 4 360 15 68 235 184 234 188 198 202 195 160 234 242 232 239 232 219 184 163 176 151 139 21 264 310 299 286 243 210 189 212 220
295 304 314 323 332 335 343 355 4 10 21 33 33 25 30 301 145 222 310 252 258 242 256 192 191 169 219 195 297 269 254 225 186 200 164 144 141 149 280 339 343 252 196 178 197 236 217
297 291 291 303 314 325 331 342 352 7 14 19 24 25 16 287 236 298 260 252 296 281 268 261 250 230 226 318 358 332 335 292 62 61 184 156 123 321 295 265 292 290 122 139 178 291 213
283 288 290 290 293 302 317 322 334 346 353 358 359 8 344 113 246 240 216 215 257 272 334 276 283 261 193 89 96 241 242 269 218 98 42 114 109 139 142 294 251 234 205 184 158 317 317
277 280 278 278 286 289 290 297 310 316 322 333 342 353 345 279 260 205 207 218 205 190 224 284 280 167 173 106 198 218 265 205 226 182 164 145 202 208 219 257 282 252 247 223 40 255 354
268 271 274 275 275 273 273 273 274 282 297 307 310 321 325 262 274 259 237 211 211 213 181 181 29 212 78 161 182 237 212 241 288 171 180 172 165 187 187 220 270 195 112 188 228 296 310
268 263 267 272 279 279 270 264 256 260 262 265 275 290 306 293 272 285 280 274 259 247 246 218 251 173 200 115 196 161 231 206 190 253 92 237 192 183 190 214 235 209 240 286 294 296 305